Stations météo

réclame
Mon MeteoGroup
Ueckermünde, Allemagne (10193): Température de l'air & dewpoint: 14.07.2018 22:00:00 - 20.07.2018 22:00:00 (CEST)Ueckermünde, Allemagne (10193): Température de l'air 5cm & Température de l'air -5cm: 14.07.2018 22:00:00 - 20.07.2018 22:00:00 (CEST)Ueckermünde, Allemagne (10193): Température de l'air -20cm & Température de l'air -100cm: 14.07.2018 22:00:00 - 20.07.2018 22:00:00 (CEST)Ueckermünde, Allemagne (10193): Vitesse du vent & gusts: 14.07.2018 22:00:00 - 20.07.2018 22:00:00 (CEST)Ueckermünde, Allemagne (10193): Direction du vent: 14.07.2018 22:00:00 - 20.07.2018 22:00:00 (CEST)Ueckermünde, Allemagne (10193): reduced air pressure: 14.07.2018 22:00:00 - 20.07.2018 22:00:00 (CEST)Ueckermünde, Allemagne (10193): visibility: 14.07.2018 22:00:00 - 20.07.2018 22:00:00 (CEST)Ueckermünde, Allemagne (10193): Ensoleillement: 14.07.2018 22:00:00 - 20.07.2018 22:00:00 (CEST)Ueckermünde, Allemagne (10193): Quantités de précipitations: 14.07.2018 22:00:00 - 20.07.2018 22:00:00 (CEST)
Date & Time tt [°C] td [°C] tt 5cm [°C] tt -5cm [°C] tt -20cm [°C] tt -100cm [°C] ff [km/h] ff [knt] fx [km/h] fx [knt] dd ppp [hPa] vv [km] sd [min] rr [mm]
20.07.2018 22:00:00 15,6 13,3 13,1 21,5 24,0 18,3 5 3 12 7 S 1013,3 48 0 0,0
20.07.2018 21:00:00 20,0 13,2 18,9 23,9 24,4 18,3 8 4 14 7 NE 1013,2 70 11 0,0
20.07.2018 20:00:00 20,6 13,2 19,7 26,8 24,4 18,3 8 4 18 10 NE 1013,4 70 52 0,0
20.07.2018 19:00:00 21,6 14,1 22,0 29,5 24,3 18,3 11 6 22 12 NE 1013,3 52 60 0,0
20.07.2018 18:00:00 22,3 15,0 23,6 31,1 23,9 18,3 14 8 19 10 NNE 1013,1 39 60 0,0
20.07.2018 17:00:00 22,1 14,6 23,2 31,4 23,3 18,3 11 6 24 13 NE 1013,4 42 56 0,0
20.07.2018 16:00:00 23,0 16,1 25,3 31,4 22,7 18,3 13 7 21 12 NE 1013,7 39 37 0,0
20.07.2018 15:00:00 22,9 11,3 24,4 32,2 21,9 18,3 8 4 20 11 NNW 1014,0 61 49 0,0
20.07.2018 14:00:00 23,4 11,2 26,7 30,8 21,0 18,3 9 5 21 11 N 1014,2 49 51 0,0
20.07.2018 13:00:00 22,8 11,9 26,5 29,2 20,1 18,3 10 5 21 11 N 1014,4 39 60 0,0
20.07.2018 12:00:00 22,2 12,3 25,4 26,6 19,4 18,3 9 5 18 10 N 1014,8 40 60 0,0
20.07.2018 11:00:00 21,7 12,0 25,2 24,6 18,8 18,3 10 5 23 12 NW 1015,0 42 58 0,0
20.07.2018 10:00:00 21,0 13,7 24,0 22,6 18,3 18,3 11 6 22 12 WNW 1015,0 33 60 0,0
20.07.2018 09:00:00 19,3 14,8 21,9 20,2 17,9 18,3 11 6 21 11 NW 1015,0 20 60 0,0
20.07.2018 08:00:00 17,5 13,8 20,0 17,5 17,9 18,3 7 4 13 7 W 1015,0 43 60 0,0
20.07.2018 07:00:00 14,7 12,0 15,8 14,7 18,0 18,3 8 4 12 7 WSW 1015,2 30 60 0,0
20.07.2018 06:00:00 13,2 11,1 12,1 13,0 18,3 18,3 6 3 12 7 SW 1015,1 24 7 0,0
20.07.2018 05:00:00 12,3 10,4 10,3 13,0 18,7 18,4 8 4 11 6 SW 1015,2 31 0 0,0
20.07.2018 04:00:00 12,8 10,5 10,8 13,4 19,1 18,4 6 4 10 5 SSW 1015,3 38 0 0,0
20.07.2018 03:00:00 13,3 10,3 10,8 13,8 19,5 18,4 7 4 11 6 SW 1015,4 38 0 0,0
20.07.2018 02:00:00 13,2 10,2 9,7 14,3 19,9 18,4 5 3 9 5 SW 1015,8 36 0 0,0
20.07.2018 01:00:00 12,9 10,5 9,8 15,0 20,4 18,4 4 2 7 4 SW 1016,0 26 0 0,0
20.07.2018 00:00:00 13,5 10,5 10,4 16,0 20,8 18,4 4 2 10 5 SW 1016,1 25 0 0,0
19.07.2018 23:00:00 16,0 10,5 12,2 17,0 21,2 18,4 6 3 13 7 WSW 1016,2 39 0 0,0
19.07.2018 22:00:00 19,0 10,9 15,9 18,0 21,6 18,4 6 3 18 10 W 1016,2 49 4 0,0
19.07.2018 21:00:00 20,8 10,7 18,9 19,4 21,9 18,4 10 5 20 11 WNW 1016,0 45 21 0,0
19.07.2018 20:00:00 21,7 13,7 20,7 21,1 22,2 18,4 6 3 21 11 NNW 1015,9 44 28 0,0
19.07.2018 19:00:00 22,1 13,8 21,6 22,2 22,3 18,4 10 5 23 12 N 1015,7 55 10 0,0
19.07.2018 18:00:00 22,2 12,2 22,0 24,6 22,1 18,4 9 5 24 13 N 1015,9 47 49 0,0
19.07.2018 17:00:00 23,0 13,6 24,1 26,0 21,8 18,4 10 6 23 12 N 1016,1 39 60 0,0
19.07.2018 16:00:00 23,0 13,5 24,8 26,7 21,3 18,4 11 6 26 14 N 1016,2 41 60 0,0
19.07.2018 15:00:00 22,7 13,1 24,7 25,7 20,9 18,4 13 7 29 16 N 1016,4 28 28 0,0
19.07.2018 14:00:00 22,1 13,6 24,2 24,4 20,5 18,4 10 5 31 17 NNW 1016,3 38 0 0,0
19.07.2018 13:00:00 21,4 15,4 23,6 23,5 20,3 18,4 12 7 32 17 NW 1016,2 30 0 0,0
19.07.2018 12:00:00 20,4 16,2 21,6 21,2 20,2 18,4 13 7 29 15 NW 1016,1 27 0 0,0
19.07.2018 11:00:00 18,9 16,5 19,2 19,9 20,2 18,4 18 10 35 19 NW 1016,0 29 0 0,0
19.07.2018 10:00:00 19,3 17,5 19,5 19,6 20,2 18,4 11 6 32 18 NW 1015,6 16 0 0,0
19.07.2018 09:00:00 19,3 18,0 19,1 19,5 20,2 18,4 13 7 30 16 NW 1015,3 15 0 0,0
19.07.2018 08:00:00 19,3 17,9 19,0 19,3 20,3 18,4 10 5 26 14 NNW 1015,1 12 0 0,0
19.07.2018 07:00:00 19,3 18,6 18,8 19,2 20,4 18,4 7 4 24 13 NNW 1014,8 9 0 0,2
19.07.2018 06:00:00 19,4 18,6 19,1 19,1 20,5 18,4 10 6 30 16 NW 1014,4 6 0 0,0
19.07.2018 05:00:00 19,3 18,2 18,9 19,0 20,6 18,4 10 5 29 16 NW 1014,3 19 0 0,0
19.07.2018 04:00:00 19,2 18,0 18,5 18,9 20,7 18,4 10 5 30 16 NNW 1014,2 18 0 0,1
19.07.2018 03:00:00 18,1 17,5 17,8 18,7 20,9 18,4 7 4 21 11 WNW 1014,2 6 0 0,0
19.07.2018 02:00:00 18,6 16,2 18,4 18,2 21,2 18,4 11 6 24 13 WNW 1014,2 19 0 0,0
19.07.2018 01:00:00 19,0 15,4 18,2 18,2 21,6 18,4 11 6 23 12 WNW 1014,2 26 0 0,0
19.07.2018 00:00:00 19,6 15,2 18,3 18,7 22,0 18,4 13 7 26 14 W 1014,1 29 0 0,0
18.07.2018 23:00:00 20,1 15,4 18,9 19,5 22,4 18,4 12 6 24 13 W 1013,9 26 0 0,0
18.07.2018 22:00:00 20,6 16,5 19,1 20,6 22,7 18,4 9 5 21 12 W 1014,1 21 0 0,0
18.07.2018 21:00:00 21,9 16,8 21,1 22,1 22,9 18,4 11 6 29 15 WNW 1014,1 21 0 0,0
18.07.2018 20:00:00 22,8 17,1 22,8 23,9 22,9 18,4 14 7 28 15 WNW 1013,8 29 9 0,0
18.07.2018 19:00:00 24,0 18,0 24,9 25,0 22,8 18,4 11 6 29 16 NW 1013,7 23 25 0,0
18.07.2018 18:00:00 23,4 18,7 24,1 25,7 22,7 18,4 8 4 23 12 NW 1013,6 26 33 0,0
18.07.2018 17:00:00 23,1 18,0 24,1 25,7 22,4 18,4 11 6 26 14 N 1013,6 25 26 0,0
18.07.2018 16:00:00 23,1 18,2 24,7 25,9 22,2 18,4 9 5 22 12 N 1013,5 26 12 0,0
18.07.2018 15:00:00 23,2 18,3 24,9 25,9 21,9 18,4 13 7 26 14 NW 1013,4 23 10 0,0
18.07.2018 14:00:00 22,4 18,0 23,4 25,5 21,5 18,4 14 8 29 16 WNW 1013,6 18 3 0,0
18.07.2018 13:00:00 22,0 18,8 22,7 25,3 21,0 18,4 15 8 30 16 W 1013,5 12 4 0,0
18.07.2018 12:00:00 21,5 18,4 21,6 24,5 20,7 18,4 16 9 30 16 WNW 1013,2 12 3 0,0
18.07.2018 11:00:00 20,4 19,0 21,0 22,4 20,5 18,3 10 6 23 12 WNW 1013,3 16 0 0,1
18.07.2018 10:00:00 18,9 18,4 19,1 20,3 20,5 18,3 11 6 21 11 WNW 1013,1 10 0 0,3
18.07.2018 09:00:00 18,4 17,9 18,5 19,7 20,6 18,3 10 5 29 16 WNW 1012,9 9 0 0,7
18.07.2018 08:00:00 18,8 18,3 18,5 19,4 20,7 18,3 12 6 26 14 NW 1012,6 11 0 1,4
18.07.2018 07:00:00 18,9 18,0 18,4 19,2 20,8 18,3 8 5 26 14 NNW 1012,2 7 0 1,2
18.07.2018 06:00:00 19,0 18,1 18,3 19,1 20,9 18,3 9 5 31 17 NW 1011,7 11 0 2,0
18.07.2018 05:00:00 19,4 18,4 18,7 19,3 21,1 18,3 9 5 23 13 NNW 1011,7 7 0 0,6
18.07.2018 04:00:00 19,0 18,5 18,5 19,3 21,2 18,3 8 5 21 12 WNW 1011,6 8 0 0,2
18.07.2018 03:00:00 18,9 18,0 18,3 19,4 21,4 18,3 10 5 23 12 WNW 1011,6 13 0 0,0
18.07.2018 02:00:00 19,6 18,7 18,8 19,6 21,6 18,3 9 5 22 12 NW 1011,4 14 0 0,1
18.07.2018 01:00:00 19,8 18,4 18,9 19,7 21,8 18,3 10 6 25 13 NW 1011,5 16 0 0,0
18.07.2018 00:00:00 19,7 17,7 18,4 20,0 22,1 18,3 8 4 20 11 NNW 1011,5 17 0 1,3
17.07.2018 23:00:00 20,7 17,6 19,7 20,3 22,3 18,3 4 2 16 9 NNW 1011,7 18 0 0,0
17.07.2018 22:00:00 21,0 17,4 20,3 20,8 22,5 18,2 5 3 15 8 NNW 1011,7 20 0 0,0
17.07.2018 21:00:00 21,1 17,5 20,3 21,6 22,7 18,2 8 4 16 9 NW 1011,5 28 0 0,0
17.07.2018 20:00:00 21,1 18,4 20,1 22,7 22,8 18,2 6 4 17 9 NW 1011,7 28 0 0,0
17.07.2018 19:00:00 21,0 19,1 20,5 23,5 22,9 18,2 5 3 14 8 N 1011,9 23 0 0,0
17.07.2018 18:00:00 20,4 19,2 20,3 23,5 23,0 18,2 3 2 15 8 NNW 1011,8 13 0 1,1
17.07.2018 17:00:00 20,9 18,5 21,5 24,8 22,9 18,2 6 4 16 8 N 1012,2 24 0 0,0
17.07.2018 16:00:00 21,0 18,4 22,3 24,7 22,8 18,2 7 4 20 11 N 1012,1 29 0 0,0
17.07.2018 15:00:00 20,9 18,4 21,3 25,0 22,7 18,2 12 7 22 12 N 1012,3 13 0 0,0
17.07.2018 14:00:00 21,8 17,4 22,5 25,0 22,6 18,1 10 5 19 11 N 1012,1 30 0 0,0
17.07.2018 13:00:00 21,9 17,7 23,6 25,5 22,3 18,1 8 5 16 9 N 1012,1 34 0 0,0
17.07.2018 12:00:00 21,0 16,9 22,8 25,2 22,1 18,1 10 5 19 10 N 1012,1 33 0 0,0
17.07.2018 11:00:00 20,9 18,1 21,9 23,6 22,1 18,1 8 4 16 9 N 1012,1 27 0 0,0
17.07.2018 10:00:00 20,7 17,8 20,6 22,6 22,0 18,1 7 4 16 9 N 1012,0 27 0 0,0
17.07.2018 09:00:00 21,0 18,3 21,6 22,0 22,1 18,1 9 5 16 9 NNE 1012,1 36 0 0,0
17.07.2018 08:00:00 20,4 18,4 20,0 21,3 22,2 18,1 5 3 13 7 N 1012,1 26 0 0,1
17.07.2018 07:00:00 19,1 17,4 19,3 20,8 22,4 18,0 7 4 13 7 WNW 1011,6 14 0 0,0
17.07.2018 06:00:00 20,2 17,9 19,7 20,4 22,6 18,0 4 2 14 7 NNW 1011,7 25 0 0,0
17.07.2018 05:00:00 20,2 17,7 19,6 20,5 22,9 18,0 7 4 16 9 N 1011,7 24 0 0,0
17.07.2018 04:00:00 20,2 17,4 19,4 20,5 23,3 18,0 5 3 13 7 NNW 1012,1 23 0 0,0
17.07.2018 03:00:00 20,1 17,6 18,9 20,7 23,7 18,0 4 2 11 6 NNW 1012,2 24 0 0,0
17.07.2018 02:00:00 20,1 16,6 17,8 21,3 24,1 18,0 4 2 14 7 NNW 1012,4 30 0 0,0
17.07.2018 01:00:00 20,4 17,1 19,6 22,3 24,5 18,0 6 3 10 5 N 1012,6 30 0 0,0
17.07.2018 00:00:00 20,5 17,2 19,7 23,1 24,9 18,0 4 2 12 6 NW 1012,4 13 0 0,0
16.07.2018 23:00:00 20,6 16,4 20,2 23,7 25,4 18,0 6 3 16 9 N 1012,9 32 0 0,0
16.07.2018 22:00:00 20,9 14,9 20,2 25,0 25,9 18,0 9 5 16 9 NNE 1013,0 40 8 0,0
16.07.2018 21:00:00 21,4 16,2 20,8 27,4 26,2 18,0 8 4 19 11 NE 1012,7 35 51 0,0
16.07.2018 20:00:00 22,2 16,1 22,5 30,4 26,2 18,0 12 6 19 10 NNE 1012,7 30 53 0,0
16.07.2018 19:00:00 23,7 16,0 24,6 32,4 26,1 18,0 11 6 20 11 NE 1013,0 30 60 0,0
16.07.2018 18:00:00 23,9 15,8 25,3 33,7 25,7 18,0 12 6 22 12 NE 1012,9 19 60 0,0
16.07.2018 17:00:00 24,2 15,2 26,2 34,7 25,2 18,0 13 7 22 12 NE 1013,0 19 60 0,0
16.07.2018 16:00:00 24,8 16,3 27,3 35,7 24,4 18,0 12 6 26 14 NE 1013,5 19 60 0,0
16.07.2018 15:00:00 24,4 16,2 27,1 35,6 23,4 18,0 19 10 27 14 NE 1014,1 10 60 0,0
16.07.2018 14:00:00 24,9 17,1 28,3 34,9 22,4 18,0 14 8 19 10 NE 1014,4 23 60 0,0
16.07.2018 13:00:00 23,9 15,1 27,5 33,1 21,4 18,0 9 5 14 8 NE 1014,6 24 60 0,0
16.07.2018 12:00:00 24,0 15,8 28,2 30,4 20,5 18,0 7 4 13 7 N 1014,8 26 60 0,0
16.07.2018 11:00:00 22,6 14,8 26,5 27,1 19,8 18,0 8 4 13 7 N 1014,9 25 60 0,0
16.07.2018 10:00:00 21,1 13,9 25,6 24,7 19,2 18,0 5 3 11 6 NW 1015,0 17 60 0,0
16.07.2018 09:00:00 19,7 16,3 23,6 22,1 18,8 18,0 5 3 10 5 NW 1015,1 15 60 0,0
16.07.2018 08:00:00 18,7 16,4 21,0 19,3 18,7 18,0 5 3 12 6 NW 1015,3 13 60 0,0
16.07.2018 07:00:00 16,0 14,2 16,7 16,5 18,9 18,0 4 2 6 3 W 1015,6 10 60 0,0
16.07.2018 06:00:00 13,2 13,1 12,1 14,3 19,2 18,0 4 2 6 4 WSW 1015,8 6 11 0,0
16.07.2018 05:00:00 12,4 12,4 11,3 14,2 19,6 18,0 6 3 8 5 SW 1016,0 5 0 0,0
16.07.2018 04:00:00 12,4 12,4 11,2 14,5 20,0 18,0 6 3 8 5 SSW 1016,0 7 0 0,0
16.07.2018 03:00:00 11,9 11,8 9,7 15,0 20,5 18,0 4 2 6 4 SSW 1016,2 3,0 0 0,0
16.07.2018 02:00:00 13,0 12,9 10,8 15,7 21,0 18,0 4 2 6 3 SSW 1016,4 8 0 0,0
16.07.2018 01:00:00 13,5 13,5 11,0 16,5 21,5 18,0 4 2 7 4 SSW 1016,7 7 0 0,0
16.07.2018 00:00:00 14,1 13,6 11,6 17,4 22,0 18,0 4 2 5 3 SSW 1016,5 10 0 0,0
15.07.2018 23:00:00 15,2 12,8 12,6 18,7 22,5 18,0 3 2 10 5 N 1016,4 19 0 0,0
15.07.2018 22:00:00 18,3 13,9 15,4 20,3 22,9 18,0 4 2 16 9 N 1016,3 29 10 0,0
15.07.2018 21:00:00 19,7 13,9 19,0 22,5 23,3 18,0 9 5 17 9 NNE 1016,1 37 60 0,0
15.07.2018 20:00:00 20,6 15,0 20,5 25,1 23,4 18,0 9 5 18 10 NE 1016,1 31 60 0,0
15.07.2018 19:00:00 21,3 15,7 21,7 27,1 23,3 18,0 11 6 17 9 NE 1016,2 38 60 0,0
15.07.2018 18:00:00 22,0 16,3 22,8 28,3 23,1 18,0 10 5 21 11 NE 1016,4 20 60 0,0
15.07.2018 17:00:00 21,8 16,4 23,5 28,6 22,7 18,0 13 7 21 11 NNE 1016,7 22 60 0,0
15.07.2018 16:00:00 22,1 16,0 24,3 29,6 22,2 18,0 15 8 21 12 NNE 1017,1 22 60 0,0
15.07.2018 15:00:00 22,0 15,4 24,3 29,9 21,6 18,0 14 7 20 11 NE 1017,3 28 60 0,0
15.07.2018 14:00:00 22,7 15,4 25,3 29,7 20,8 18,0 10 5 16 9 NE 1017,5 41 60 0,0
15.07.2018 13:00:00 21,6 14,6 24,7 28,8 20,0 18,0 8 5 16 9 NE 1017,7 26 59 0,0
15.07.2018 12:00:00 20,7 13,7 24,5 26,9 19,3 18,0 8 4 16 9 N 1017,8 34 46 0,0
15.07.2018 11:00:00 19,9 14,3 22,3 25,0 18,6 18,0 6 4 15 8 N 1017,9 42 53 0,0
15.07.2018 10:00:00 19,2 14,2 23,0 22,7 18,1 18,0 8 4 18 10 NW 1017,9 19 60 0,0
15.07.2018 09:00:00 17,8 14,2 20,8 20,1 17,7 18,0 10 6 19 11 NW 1017,7 21 60 0,0
15.07.2018 08:00:00 16,6 13,7 19,1 17,2 17,6 18,0 8 5 14 8 W 1017,5 32 60 0,0
15.07.2018 07:00:00 13,7 12,0 14,4 14,5 17,8 18,0 8 4 12 7 W 1017,5 22 60 0,0
15.07.2018 06:00:00 11,8 10,9 11,0 12,8 18,1 18,0 6 3 12 6 WSW 1017,5 29 13 0,0
15.07.2018 05:00:00 11,0 10,5 9,3 12,8 18,5 18,0 6 3 10 5 SW 1017,4 28 0 0,0
15.07.2018 04:00:00 11,3 10,6 10,0 13,2 18,9 18,0 5 3 8 5 SSW 1017,5 35 0 0,0
15.07.2018 03:00:00 11,7 10,7 10,1 13,6 19,3 18,0 5 3 9 5 SW 1017,6 43 0 0,0
15.07.2018 02:00:00 11,8 10,7 9,9 14,1 19,8 18,0 6 3 8 4 SSW 1017,9 26 0 0,0
15.07.2018 01:00:00 12,2 10,7 9,3 14,7 20,3 18,0 5 3 8 4 SW 1018,0 43 0 0,0
15.07.2018 00:00:00 11,9 10,9 9,8 15,5 20,8 18,0 5 3 8 4 SW 1018,1 37 0 0,0
14.07.2018 23:00:00 13,9 11,2 11,5 16,6 21,3 18,0 6 3 12 6 WSW 1018,2 44 0 0,0
14.07.2018 22:00:00 15,6 11,2 14,0 17,7 21,7 18,0 7 4 21 11 W 1018,3 51 11 0,0

tt = Température de l'air
td = dewpoint
tt 5cm = Température de l'air 5cm
tt -5cm = Température de l'air -5cm
tt -20cm = Température de l'air -20cm
tt -100cm = Température de l'air -100cm
ff = Vitesse du vent
fx = gusts
dd = Direction du vent
ppp = reduced air pressure
vv = visibility
sd = Ensoleillement
rr = Quantités de précipitations

stations d'obs. à proximité